[Iaude] MPEC G205: 2024 GS5 [a=1.57,e=0.42,i=28.5,H=26.0]

mpec at cfa.harvard.edu mpec at cfa.harvard.edu
Sun Apr 14 11:14:25 EDT 2024


M.P.E.C. 2024-G205                               Issued 2024 April 14, 15:12 UT

     The Minor Planet Electronic Circulars contain information on unusual
         minor planets, routine data on comets and natural satellites,
         and occasional editorial announcements.  They are published
    on behalf of Division F of the International Astronomical Union by the
          Minor Planet Center, Smithsonian Astrophysical Observatory,
                          Cambridge, MA 02138, U.S.A.
			  
             Prepared using the Tamkin Foundation Computer Network

                              MPC at CFA.HARVARD.EDU
            URL https://www.minorplanetcenter.net/    ISSN 1523-6714

                                    2024 GS5                                    


Observations:
     K24G05S*1C2024 04 13.36437415 51 40.626+52 21 18.97         20.93GVEG205G96
     K24G05S 1C2024 04 13.36956315 51 42.196+52 21 51.66         21.00GVEG205G96
     K24G05S 1C2024 04 13.37473715 51 43.787+52 22 24.49         21.02GVEG205G96
     K24G05S 1C2024 04 13.37992915 51 45.292+52 22 57.61         20.83GVEG205G96
     K24G05S  C2024 04 13.39811815 51 49.503+52 24 45.72         21.0 GVEG205H01
     K24G05S  C2024 04 13.40353415 51 51.147+52 25 19.07         21.3 GVEG205H01
     K24G05S  C2024 04 13.41422515 51 54.459+52 26 24.82         21.1 GVEG205H01
     K24G05S  C2024 04 13.41974515 51 56.177+52 26 58.68         20.9 GVEG205H01
     K24G05S KB2024 04 13.42385 15 51 53.849+52 26 57.23         21.1 GVEG205734
     K24G05S KB2024 04 13.44147 15 51 59.690+52 28 41.52         20.9 GVEG205734
     K24G05S KC2024 04 13.47040315 52 13.588+52 32 15.04         21.09GVEG205I52
     K24G05S KC2024 04 13.47152715 52 13.998+52 32 21.80         21.11GVEG205I52
     K24G05S KC2024 04 13.47263415 52 14.315+52 32 28.50         21.04GVEG205I52
     K24G05S KC2024 04 13.47374615 52 14.732+52 32 34.98         20.55GVEG205I52
     K24G05S 1C2024 04 13.95932 15 57 02.69 +53 30 51.8          20.8 VXEG205033
     K24G05S 1C2024 04 13.96047 15 57 03.32 +53 31 01.9          20.7 VXEG205033
     K24G05S KC2024 04 14.06469215 58 03.69 +53 47 19.5                VEG205204
     K24G05S 1C2024 04 14.08524 15 58 14.40 +53 50 03.0          20.6 VXEG205033
     K24G05S 1C2024 04 14.08627 15 58 15.01 +53 50 12.6          20.6 VXEG205033
     K24G05S 1C2024 04 14.08732 15 58 15.64 +53 50 22.3          20.7 VXEG205033
     K24G05S 1C2024 04 14.08836 15 58 16.24 +53 50 31.5          21.0 VXEG205033
     K24G05S KC2024 04 14.09225415 58 19.47 +53 51 34.2          20.4 GVEG205204
     K24G05S 7C2024 04 14.10375615 58 30.859+53 54 05.42         21.0 GVEG205Z84
     K24G05S 7C2024 04 14.10676815 58 32.530+53 54 33.73         21.0 GVEG205Z84
     K24G05S KB2024 04 14.11385115 58 35.66 +53 55 03.5          20.2 GXEG205I93
     K24G05S KC2024 04 14.11976515 58 35.63 +53 55 48.2                VEG205204
     K24G05S KB2024 04 14.12002815 58 39.33 +53 56 01.8          20.4 GXEG205I93
     K24G05S KB2024 04 14.12619415 58 42.94 +53 56 59.5          20.2 GXEG205I93
     K24G05S mC2024 04 14.26711516 01 01.499+54 20 08.99         20.35GVEG205I52
     K24G05S mC2024 04 14.26758616 01 01.736+54 20 14.60         21.17GVEG205I52
     K24G05S mC2024 04 14.26806216 01 02.125+54 20 20.47         20.65GVEG205I52
     K24G05S mC2024 04 14.26854116 01 02.478+54 20 26.48         20.37GVEG205I52

Observer details:
033 Karl Schwarzschild Observatory, Tautenburg.  Observers S. Melnikov, C.
    Hogner, F. Ludwig, M. Hartmann, B. Stecklum.  Measurer B. Stecklum.
    1.34-m f/3 Schmidt + CCD.
204 Schiaparelli Observatory.  Observer L. Buzzi.  0.84-m f/3.5 reflector +
    CMO.
734 Farpoint Observatory, Eskridge.  Observers D. Cromer, G. Hug, D. Goodin,
    R. Valentine, P. Lessig.  Measurer G. Hug.  0.69-m f/3.54 reflector + CMO.
G96 Mt. Lemmon Survey.  Observer K. W. Wierzchos.  Measurers T. Beuden, V. F.
    Carvajal, D. Fay, J. B. Fazekas, D. C. Fuls, A. R. Gibbs, A. D. Grauer, H.
    Groeller, J. K. Hogan, R. A. Kowalski, S. M. Larson, G. J. Leonard, D.
    Rankin, R. L. Seaman, F. C. Shelly, K. W. Wierzchos.  1.5-m reflector +
    10K CCD.
H01 Magdalena Ridge Observatory, Socorro.  Observers W. H. Ryan, E. V. Ryan.
    Measurer W. H. Ryan.  2.4-m f/8.9 Ritchey-Chretien + CCD.
I52 Steward Observatory, Mt. Lemmon Station.  Observers V. F. Carvajal, D.
    Rankin.  Measurers T. Beuden, V. F. Carvajal, D. Fay, J. B. Fazekas, D. C.
    Fuls, A. R. Gibbs, A. D. Grauer, H. Groeller, J. K. Hogan, R. A. Kowalski,
    S. M. Larson, G. J. Leonard, D. Rankin, R. L. Seaman, F. C. Shelly, K. W.
    Wierzchos.  1.0-m prime focus + CCD.
I93 St Pardon de Conques.  Observer F. Losse.  0.40-m f/3.7 reflector + CCD.
Z84 Calar Alto-Schmidt.  Observers F. Ocana, R. Kresken, M. Micheli, L.
    Conversi.  Measurers F. Ocana, M. Micheli.  0.8-m f/3 Schmidt + CCD.

Orbital elements:
2024 GS5                                                 Earth MOID = 0.0047 AU
Epoch 2024 Mar. 31.0 TT = JDT 2460400.5                 Veres                   
M 332.79751              (2000.0)            P               Q                  
n   0.50212291     Peri.  227.40074     -0.30502687     +0.92696322             
a   1.5676990      Node    27.27648     -0.67278356     -0.04743434             
e   0.4243757      Incl.   28.46070     -0.67403330     -0.37214133             
P   1.96           H   26.01          G   0.15           U   8                  
Residuals in seconds of arc
240413 G96  0.1+  0.2-    240413 I52  0.2+  0.1+    240414 Z84  0.0   0.0
240413 G96  0.1+  0.3-    240413 I52  0.2-  0.1+    240414 Z84  0.3-  0.1-
240413 G96  0.3+  0.2-    240413 I52  0.2+  0.1-    240414 I93  0.0   0.1-
240413 G96  0.3-  0.2+    240413 033  0.9-  0.5+    240414 204  0.3+  0.3+
240413 H01  0.1+  0.0     240413 033  1.1-  0.1+    240414 I93  0.3+  0.2+
240413 H01  0.0   0.1-    240414 204  0.2+  0.4-    240414 I93  0.1-  0.1+
240413 H01  0.0   0.0     240414 033  0.1-  0.1-    240414 I52  0.5+  0.5-
240413 H01  0.1+  0.0     240414 033  0.1-  0.0     240414 I52  0.4-  0.3-
240413 734  0.0   0.2+    240414 033  0.0   0.1+    240414 I52  0.0   0.1+
240413 734  0.1+  0.3+    240414 033  0.1-  0.3-    240414 I52  0.0   0.5+
240413 I52  0.2-  0.1+    240414 204  0.3+  0.0

Ephemeris:
2024 GS5                 a,e,i = 1.57, 0.42, 28                  q = 0.9024
Date    TT    R. A. (2000) Decl.     Delta      r    Elong.  Phase     V
2024 03 15    15 16 28.4 +44 35 31   0.3444  1.1881   116.3    48.6    25.9
...
2024 03 30    15 29 11.3 +46 42 03   0.1884  1.0961   116.6    54.5    24.6
...
2024 04 07    15 35 34.5 +48 14 07   0.1046  1.0506   115.7    59.2    23.3
...
2024 04 13    15 49 13.3 +51 46 35   0.04150 1.0189   111.9    66.0    21.5
2024 04 14    15 57 16.5 +53 36 56   0.03103 1.0138   109.7    68.7    20.9
2024 04 15    16 15 40.8 +57 10 32   0.02064 1.0089   105.3    73.6    20.2
...
2024 04 21    03 13 37.4 -40 57 52   0.04359 0.9810    55.8   122.1    24.2
...
2024 04 29    03 22 32.9 -44 04 53   0.1278  0.9495    59.9   113.4    25.8
...
2024 05 14    03 23 09.2 -43 03 02   0.2820  0.9112    61.7   102.5    26.8

M. P. C. Staff               (C) Copyright 2024 MPC           M.P.E.C. 2024-G205





More information about the Iaude mailing list